Location: Cormont
(50.5693°N, 1.7416°E)
Time: 06:48:55
(UTC+00:00)

ATLAS 5 CENTAUR R/B - Pass Details

Date: 21 October 2019
Orbit: 557 x 1102 km, 63.4° (Epoch: 11 November)

Event Time Altitude Azimuth Distance (km) Brightness Sun altitude
Rises 18:28:24 0° 269° (W) 2,879 6.8 -16.4°
Reaches altitude 10° 18:30:53 10° 283° (WNW) 2,041 5.5 -16.7°
Maximum altitude 18:34:46 26° 340° (NNW) 1,367 3.5 -17.4°
Enters shadow 18:39:01 10° 36° (NE) 2,277 4.2 -18.0°
